Bei Facebook empfehlenBei Twitter postenGoogle plusPinterest

Das Wetter im Erzgebirge am 23.02.2016

Wetter und Klima am 23.02.2016 Holzhau im Erzgebirge (630m ü.NN)
Letzte gemessene Temperatur und Uhrzeit der Messung23:45:00 Uhr-0.40 °C
Temperatur (Maximum / Höchstwert) und Uhrzeit der Messung13:30:00 Uhr1.60 °C
Temperatur (Minimum / Tiefstwert) und Uhrzeit der Messung21:45:00-0.90 °C
Errechneter Absolutwert der Temperaturschwankungen zwischen Tmin und Tmax des Tages2.50 K
Errechnete Tagesmitteltemperatur-0.00417 °C
Gesamt - Niederschlag des Tages (in flüssiger Form)1.04 Liter / m²
Luftdruck (Maximum / Höchstwert) und Zeitpunkt der Messung23:45:00 Uhr1009.00 hPa
Luftdruck (Minimum / Tiefstwert) und Zeitpunkt der Messung00:15:00 Uhr1002.80 hPa
Errechneter Absolutwert der Luftdruckschwankungen des Tages6.20 hPa
Höchste gemessene Windgeschwindigkeit und Uhrzeit der Messung22:45:00 Uhr5.76 km/h
Errechnete Windhäufigkeit in Relation zu den Messwerten des Tages9.37500 %
Niedrigste Windkühle (Windchill) und Zeitpunkt der Messung22:45:00 Uhr-2.40 °C
Taupunkt (Maximum / Höchstwert) und Uhrzeit der Messung13:30:00 Uhr0.60 °C
Taupunkt (Minimum / Tiefstwert) und Uhrzeit der Messung21:30:00-2.00 °C
Anzahl der automatisch eingelesenen Messwerte 96

Detaillierte Wetter- und Klima- Messwerte für den 23.02.2016 in Holzhau im Erzgebirge (630m ü.NN)
ZeitTemperaturLuftdruckRel. LuftfeuchteWindWindrichtungWindchillTaupunktNiederschlag l/m²
23:45:00-0.40 °C1009.00 hPa94.00 %-1.30 °C1.04
23:30:00-0.40 °C1008.80 hPa94.00 %2.52 km/hWSW-0.40 °C-1.30 °C1.04
23:15:00-0.40 °C1008.80 hPa94.00 %-1.30 °C1.04
23:00:00-0.40 °C1008.70 hPa94.00 %-1.30 °C1.04
22:45:00-0.40 °C1008.60 hPa94.00 %5.76 km/hWNW-2.40 °C-1.30 °C1.04
22:30:00-0.50 °C1008.20 hPa94.00 %-1.40 °C1.04
22:15:00-0.60 °C1008.00 hPa94.00 %2.52 km/hW-0.60 °C-1.50 °C1.04
22:00:00-0.70 °C1008.10 hPa94.00 %-1.60 °C1.04
21:45:00-0.90 °C1007.90 hPa94.00 %-1.80 °C1.04
21:30:00-0.90 °C1007.80 hPa93.00 %-2.00 °C1.04
21:15:00-0.90 °C1007.50 hPa93.00 %-2.00 °C1.04
21:00:00-0.80 °C1007.20 hPa93.00 %2.88 km/hW-0.80 °C-1.90 °C1.04
20:45:00-0.80 °C1007.00 hPa93.00 %-1.90 °C1.04
20:30:00-0.70 °C1006.80 hPa93.00 %-1.80 °C1.04
20:15:00-0.50 °C1006.40 hPa94.00 %-1.40 °C1.04
20:00:00-0.40 °C1006.60 hPa94.00 %-1.30 °C1.04
19:45:00-0.40 °C1006.40 hPa94.00 %-1.30 °C1.04
19:30:00-0.40 °C1006.20 hPa94.00 %-1.30 °C1.04
19:15:00-0.50 °C1006.20 hPa94.00 %-1.40 °C1.04
19:00:00-0.50 °C1006.20 hPa94.00 %-1.40 °C1.04
18:45:00-0.50 °C1006.00 hPa93.00 %-1.60 °C1.04
18:30:00-0.40 °C1005.80 hPa93.00 %2.88 km/hWNW-0.40 °C-1.50 °C1.04
18:15:00-0.40 °C1005.80 hPa93.00 %-1.50 °C1.04
18:00:00-0.30 °C1005.50 hPa93.00 %-1.40 °C1.04
17:45:00-0.20 °C1005.20 hPa93.00 %-1.30 °C1.04
17:30:00-0.20 °C1005.20 hPa93.00 %-1.30 °C1.04
17:15:00-0.10 °C1005.00 hPa93.00 %5.40 km/hWNW-1.90 °C-1.20 °C0.52
17:00:00-0.10 °C1005.00 hPa93.00 %-1.20 °C0.52
16:45:000.10 °C1005.00 hPa93.00 %-0.90 °C0.52
16:30:000.10 °C1005.10 hPa93.00 %-0.90 °C0.52
16:15:000.20 °C1004.90 hPa93.00 %-0.80 °C0.52
16:00:000.30 °C1004.80 hPa93.00 %-0.70 °C0.52
15:45:000.10 °C1004.90 hPa93.00 %-0.90 °C0.52
15:30:000.30 °C1004.50 hPa92.00 %3.24 km/hW0.30 °C-0.80 °C0.52
15:15:000.50 °C1004.30 hPa93.00 %-0.50 °C0.52
15:00:000.80 °C1004.30 hPa93.00 %2.88 km/hWSW0.80 °C-0.20 °C0.52
14:45:000.90 °C1004.40 hPa93.00 %-0.10 °C0.52
14:30:000.90 °C1004.30 hPa93.00 %-0.10 °C0.52
14:15:000.90 °C1004.40 hPa93.00 %-0.10 °C0.52
14:00:001.30 °C1004.20 hPa93.00 %1.80 km/hW1.30 °C0.30 °C0.52
13:45:001.40 °C1004.30 hPa93.00 %0.40 °C0.52
13:30:001.60 °C1004.40 hPa93.00 %0.60 °C0.52
13:15:001.30 °C1004.40 hPa93.00 %0.30 °C0.52
13:00:001.20 °C1004.70 hPa93.00 %0.20 °C0.52
12:45:001.30 °C1004.90 hPa93.00 %0.30 °C0.52
12:30:001.40 °C1004.90 hPa93.00 %0.40 °C0.52
12:15:001.30 °C1005.00 hPa93.00 %0.30 °C0.52
12:00:001.30 °C1005.00 hPa93.00 %0.30 °C0.52
11:45:001.10 °C1005.00 hPa93.00 %0.10 °C0.52
11:30:001.10 °C1005.20 hPa94.00 %0.20 °C0.52
11:15:001.10 °C1005.10 hPa94.00 %0.20 °C0.52
11:00:000.80 °C1004.90 hPa94.00 %-0.10 °C0.52
10:45:000.80 °C1004.90 hPa94.00 %-0.10 °C0.52
10:30:000.90 °C1004.90 hPa94.00 %0.00 °C0.52
10:15:000.70 °C1004.90 hPa94.00 %-0.20 °C0.52
10:00:000.40 °C1004.80 hPa94.00 %-0.50 °C0.52
09:45:000.20 °C1004.80 hPa94.00 %-0.60 °C0.52
09:30:000.10 °C1004.90 hPa94.00 %-0.70 °C0.52
09:15:00-0.10 °C1004.70 hPa94.00 %-1.00 °C0.52
09:00:00-0.20 °C1004.40 hPa94.00 %-1.10 °C0.52
08:45:00-0.40 °C1004.40 hPa94.00 %-1.30 °C0.52
08:30:00-0.40 °C1004.20 hPa94.00 %-1.30 °C0.52
08:15:00-0.50 °C1004.30 hPa94.00 %-1.40 °C0.52
08:00:00-0.60 °C1004.30 hPa94.00 %-1.50 °C0.52
07:45:00-0.70 °C1004.00 hPa94.00 %-1.60 °C0.52
07:30:00-0.80 °C1004.00 hPa93.00 %-1.90 °C0.52
07:15:00-0.80 °C1003.90 hPa93.00 %-1.90 °C0.52
07:00:00-0.80 °C1003.80 hPa93.00 %-1.90 °C0.52
06:45:00-0.70 °C1003.70 hPa93.00 %-1.80 °C0.52
06:30:00-0.70 °C1003.80 hPa93.00 %-1.80 °C0.52
06:15:00-0.70 °C1003.80 hPa93.00 %-1.80 °C0.52
06:00:00-0.70 °C1003.80 hPa93.00 %-1.80 °C0.52
05:45:00-0.70 °C1003.90 hPa93.00 %-1.80 °C0.52
05:30:00-0.60 °C1004.00 hPa94.00 %-1.50 °C0.52
05:15:00-0.60 °C1003.80 hPa93.00 %-1.70 °C0.52
05:00:00-0.60 °C1003.80 hPa93.00 %-1.70 °C0.52
04:45:00-0.60 °C1003.50 hPa93.00 %-1.70 °C0.52
04:30:00-0.50 °C1003.50 hPa93.00 %-1.60 °C0.52
04:15:00-0.50 °C1003.50 hPa93.00 %-1.60 °C0.52
04:00:00-0.50 °C1003.30 hPa93.00 %-1.60 °C0.52
03:45:00-0.40 °C1003.40 hPa93.00 %-1.50 °C0.52
03:30:00-0.30 °C1003.50 hPa93.00 %-1.40 °C0.52
03:15:00-0.20 °C1003.40 hPa93.00 %-1.30 °C0.52
03:00:00-0.10 °C1003.50 hPa92.00 %-1.40 °C0.52
02:45:00-0.10 °C1003.70 hPa92.00 %-1.40 °C0.52
02:30:00-0.10 °C1003.50 hPa92.00 %-1.40 °C0.52
02:15:000.00 °C1003.50 hPa92.00 %-1.30 °C0.52
02:00:000.10 °C1003.40 hPa92.00 %-1.00 °C0.52
01:45:000.10 °C1003.50 hPa92.00 %-1.00 °C0.52
01:30:000.10 °C1003.30 hPa92.00 %-1.00 °C0.52
01:15:000.10 °C1003.20 hPa91.00 %-1.20 °C0.52
01:00:000.20 °C1003.20 hPa91.00 %-1.10 °C0.52
00:45:000.30 °C1003.00 hPa91.00 %-1.00 °C0.52
00:30:000.40 °C1003.20 hPa91.00 %-0.90 °C0.52
00:15:000.60 °C1002.80 hPa91.00 %-0.70 °C0.52
00:00:000.90 °C1002.80 hPa91.00 %-0.40 °C 

Permanenter Link zu dieser Seite: Wetter im Erzgebirge am 23.02.2016
Performance-Info: Die Erstellung der Seite / Statistik(en) / Tabelle(n) erforderte 5 Datenbankserver-Abfrage(n) und dauerte 123 Millisekunden. (Dieser Messwert ist von der Gesamt-Auslastung des Servers abhängig.)
Erzgebirge - Wetter | Erzgebirge - Wetter (Mobilgeräte) | Komplette Klimadatenbank